Flood From: 21-02-2018 18:00 Until: 22-02-2018 16:00 warning for: Flood Level: Yellow info button

Although rather usual in this region, locally or potentially dangerous phenomena are expected. (such as local winds, summer thunderstorms, rising streams or high waves) Be aware and pay attention to the latest weather updates, especially if you carry out activities exposed to weather or close to a stream or shoreline. 


Meteo18 Weather Cam more information Meteo18 Weather Cam


Thunder radar more information blitzortung!


Rain radar more information rain snow radar


Visit our other weather sites:

Template documentation
and downloads

And another site



Weather Underground History page Text

Daily Summary for April 25, 2016 Units:  Metric    English   Both
« Previous Day
Next Day »
Daily Weekly Monthly Yearly Custom
  High: Low: Average:
Temperature: -17.8 °C -17.9 °C -14.4 °C
Dew Point: -17.8 °C -18.4 °C -16.4 °C
Humidity: Humidity % 62 % 79 %
Wind Speed: 0 km/h 0 km/h 3.5 km/h
Wind Gust: 0 km/h - -
Wind:- - SW
Pressure: 0 hPa 34212.1 hPa -
Precipitation: 7.62 mm    
Historical Graphs
 
 
Tabular Data for April 25, 2016
Time Temperature Dew Point Pressure Wind Wind Speed Wind Gust Humidity Rainfall Rate (Hourly)
-17.8 °C -17.8 °C 0 hPa Calm     Humidity % 0 mm
00:02 -15.5 °C -16.4 °C 34496.6 hPa Calm   5.1 km/h 89 % 0 mm
00:07 -15.5 °C -16.4 °C 34496.6 hPa Calm   2.6 km/h 89 % 0 mm
00:12 -15.5 °C -16.4 °C 34496.6 hPa Calm   2.6 km/h 89 % 0 mm
00:17 -15.5 °C -16.3 °C 34510.1 hPa Calm   2.6 km/h 90 % 0 mm
00:22 -15.4 °C -16.3 °C 34510.1 hPa Calm     90 % 0 mm
00:27 -15.5 °C -16.3 °C 34510.1 hPa Calm     90 % 0 mm
00:32 -15.4 °C -16.3 °C 34510.1 hPa Calm   2.6 km/h 90 % 0 mm
00:37 -15.4 °C -16.2 °C 34510.1 hPa Calm   2.6 km/h 91 % 0 mm
00:42 -15.4 °C -16.1 °C 34510.1 hPa Calm   2.6 km/h 91 % 0 mm
00:47 -15.3 °C -16.1 °C 34510.1 hPa Calm   5.1 km/h 91 % 0 mm
00:52 -15.3 °C -16.1 °C 34510.1 hPa Calm   5.1 km/h 90 % 0 mm
00:57 -15.3 °C -16.1 °C 34510.1 hPa NE 2.6 km/h 5.1 km/h 90 % 0 mm
01:02 -15.2 °C -16.1 °C 34510.1 hPa Calm   5.1 km/h 90 % 0 mm
01:07 -15.3 °C -16.1 °C 34510.1 hPa Calm   5.1 km/h 90 % 0 mm
01:12 -15.3 °C -16.1 °C 34510.1 hPa Calm   5.1 km/h 90 % 0 mm
01:17 -15.3 °C -16.2 °C 34510.1 hPa NE 5.1 km/h 5.1 km/h 90 % 0 mm
01:22 -15.3 °C -16.2 °C 34510.1 hPa Calm   5.1 km/h 90 % 0 mm
01:32 -15.4 °C -16.3 °C 34510.1 hPa Calm   5.1 km/h 89 % 0 mm
01:37 -15.4 °C -16.3 °C 34510.1 hPa Calm   5.1 km/h 90 % 0 mm
01:42 -15.4 °C -16.4 °C 34510.1 hPa Calm   5.1 km/h 89 % 0 mm
01:47 -15.5 °C -16.4 °C 34510.1 hPa Calm   5.1 km/h 89 % 0 mm
01:52 -15.5 °C -16.3 °C 34510.1 hPa Calm   5.1 km/h 90 % 0 mm
01:57 -15.6 °C -16.4 °C 34510.1 hPa Calm   5.1 km/h 90 % 0 mm
02:02 -15.7 °C -16.5 °C 34510.1 hPa Calm   5.1 km/h 90 % 0 mm
02:12 -15.8 °C -16.6 °C 34510.1 hPa Calm   5.1 km/h 90 % 0 mm
02:17 -15.9 °C -16.7 °C 34510.1 hPa Calm   5.1 km/h 90 % 0 mm
02:22 -15.9 °C -16.8 °C 34510.1 hPa Calm   5.1 km/h 90 % 0 mm
02:32 -16.1 °C -16.8 °C 34510.1 hPa Calm   2.6 km/h 91 % 0 mm
02:37 -16.2 °C -16.9 °C 34510.1 hPa Calm   2.6 km/h 91 % 0 mm
02:42 -16.2 °C -16.9 °C 34510.1 hPa Calm   2.6 km/h 91 % 0 mm
02:47 -16.3 °C -16.9 °C 34510.1 hPa Calm     92 % 0 mm
02:52 -16.3 °C -17 °C 34496.6 hPa Calm     92 % 0 mm
02:57 -16.4 °C -17.1 °C 34496.6 hPa Calm     92 % 0 mm
03:02 -16.4 °C -17 °C 34496.6 hPa Calm     93 % 0 mm
03:07 -16.5 °C -17.1 °C 34496.6 hPa Calm     93 % 0 mm
03:12 -16.6 °C -17.1 °C 34496.6 hPa Calm     93 % 0 mm
03:17 -16.6 °C -17.1 °C 34496.6 hPa ENE 2.6 km/h   93 % 0 mm
03:22 -16.6 °C -17.1 °C 34496.6 hPa Calm     93 % 0 mm
03:27 -16.6 °C -17.1 °C 34496.6 hPa Calm   7.7 km/h 93 % 0 mm
03:32 -16.6 °C -17.1 °C 34496.6 hPa ENE 2.6 km/h 7.7 km/h 93 % 0 mm
03:37 -16.6 °C -17.1 °C 34496.6 hPa NE 7.7 km/h 7.7 km/h 93 % 0 mm
03:42 -16.6 °C -17.1 °C 34496.6 hPa Calm   5.1 km/h 93 % 0 mm
03:47 -16.6 °C -17.1 °C 34496.6 hPa Calm   7.7 km/h 93 % 0 mm
03:52 -16.6 °C -17.2 °C 34496.6 hPa Calm   7.7 km/h 93 % 0 mm
03:57 -16.6 °C -17.2 °C 34496.6 hPa Calm   5.1 km/h 93 % 0 mm
04:02 -16.7 °C -17.2 °C 34496.6 hPa Calm   5.1 km/h 93 % 0 mm
04:07 -16.7 °C -17.3 °C 34496.6 hPa NE 2.6 km/h 5.1 km/h 93 % 0 mm
04:12 -16.8 °C -17.3 °C 34496.6 hPa Calm   5.1 km/h 93 % 0 mm
04:17 -16.8 °C -17.4 °C 34496.6 hPa Calm   5.1 km/h 93 % 0 mm
04:22 -16.8 °C -17.4 °C 34496.6 hPa Calm   5.1 km/h 93 % 0 mm
04:27 -16.8 °C -17.4 °C 34496.6 hPa Calm   2.6 km/h 93 % 0 mm
04:32 -16.9 °C -17.4 °C 34496.6 hPa NE 5.1 km/h 5.1 km/h 93 % 0 mm
04:37 -16.9 °C -17.4 °C 34496.6 hPa Calm   5.1 km/h 93 % 0 mm
04:42 -17 °C -17.6 °C 34496.6 hPa Calm   5.1 km/h 93 % 0 mm
04:47 -17 °C -17.6 °C 34496.6 hPa Calm   5.1 km/h 93 % 0 mm
04:52 -17 °C -17.6 °C 34496.6 hPa Calm   5.1 km/h 93 % 0 mm
04:57 -17 °C -17.6 °C 34496.6 hPa ENE 2.6 km/h 2.6 km/h 93 % 0 mm
05:02 -17 °C -17.6 °C 34496.6 hPa Calm   2.6 km/h 93 % 0 mm
05:12 -17.1 °C -17.6 °C 34496.6 hPa Calm   7.7 km/h 93 % 0 mm
05:17 -17.1 °C -17.6 °C 34496.6 hPa Calm   5.1 km/h 93 % 0 mm
05:22 -17.1 °C -17.6 °C 34496.6 hPa Calm   5.1 km/h 93 % 0 mm
05:32 -17.1 °C -17.7 °C 34496.6 hPa Calm   7.7 km/h 93 % 0 mm
05:37 -17.1 °C -17.7 °C 34496.6 hPa Calm   5.1 km/h 93 % 0 mm
05:42 -17.1 °C -17.7 °C 34486.4 hPa Calm   5.1 km/h 93 % 0 mm
05:47 -17.2 °C -17.7 °C 34486.4 hPa Calm   2.6 km/h 93 % 0 mm
05:52 -17.2 °C -17.7 °C 34486.4 hPa Calm   2.6 km/h 93 % 0 mm
05:57 -17.2 °C -17.8 °C 34486.4 hPa Calm   2.6 km/h 93 % 0 mm
06:02 -17.3 °C -17.9 °C 34486.4 hPa Calm   2.6 km/h 93 % 0 mm
06:12 -17.6 °C -18.2 °C 34486.4 hPa Calm     92 % 0 mm
06:17 -17.7 °C -18.2 °C 34486.4 hPa Calm     93 % 0 mm
06:22 -17.7 °C -18.3 °C 34486.4 hPa Calm     93 % 0 mm
06:27 -17.8 °C -18.3 °C 34486.4 hPa Calm     93 % 0 mm
06:32 -17.8 °C -18.4 °C 34486.4 hPa Calm     93 % 0 mm
06:42 -17.8 °C -18.3 °C 34486.4 hPa Calm     94 % 0 mm
06:47 -17.8 °C -18.3 °C 34486.4 hPa Calm     94 % 0 mm
06:52 -17.8 °C -18.3 °C 34486.4 hPa Calm     94 % 0 mm
06:57 -17.9 °C -18.3 °C 34486.4 hPa Calm     94 % 0 mm
07:02 -17.8 °C -18.2 °C 34486.4 hPa Calm     95 % 0 mm
07:12 -17.6 °C -17.9 °C 34486.4 hPa Calm     96 % 0 mm
07:17 -17.5 °C -17.9 °C 34486.4 hPa Calm     95 % 0 mm
07:22 -17.4 °C -17.8 °C 34486.4 hPa Calm     95 % 0 mm
07:32 -17.3 °C -17.7 °C 34486.4 hPa Calm     95 % 0 mm
07:42 -17.2 °C -17.6 °C 34486.4 hPa Calm   2.6 km/h 95 % 0 mm
07:47 -17.1 °C -17.4 °C 34486.4 hPa WSW 2.6 km/h 2.6 km/h 96 % 0 mm
07:52 -16.9 °C -17.3 °C 34486.4 hPa Calm   2.6 km/h 95 % 0 mm
08:02 -16.8 °C -17.2 °C 34486.4 hPa Calm   2.6 km/h 95 % 0 mm
08:12 -16.7 °C -17.1 °C 34486.4 hPa Calm     95 % 0 mm
08:22 -16.5 °C -16.9 °C 34486.4 hPa Calm     95 % 0 mm
08:32 -16.4 °C -16.9 °C 34486.4 hPa Calm     94 % 0 mm
08:42 -16.3 °C -16.8 °C 34476.3 hPa WSW 2.6 km/h   94 % 0 mm
08:52 -16.3 °C -16.8 °C 34476.3 hPa Calm   2.6 km/h 93 % 0 mm
08:57 -16.2 °C -16.8 °C 34476.3 hPa Calm   7.7 km/h 93 % 0 mm
09:02 -16.2 °C -16.8 °C 34476.3 hPa WSW 7.7 km/h 7.7 km/h 93 % 0 mm
09:12 -16.2 °C -16.7 °C 34476.3 hPa WSW 2.6 km/h 7.7 km/h 93 % 0 mm
09:17 -16.1 °C -16.7 °C 34462.7 hPa Calm   7.7 km/h 93 % 0 mm
09:22 -16 °C -16.6 °C 34462.7 hPa WSW 2.6 km/h 7.7 km/h 93 % 0 mm
09:32 -15.9 °C -16.7 °C 34462.7 hPa SW 5.1 km/h 7.7 km/h 91 % 0 mm
09:42 -15.8 °C -16.5 °C 34462.7 hPa SW 5.1 km/h 10.3 km/h 91 % 0 mm
09:47 -15.8 °C -16.5 °C 34462.7 hPa SW 7.7 km/h 10.3 km/h 91 % 0 mm
09:52 -15.8 °C -16.6 °C 34462.7 hPa Calm   10.3 km/h 90 % 0 mm
09:57 -15.7 °C -16.6 °C 34462.7 hPa Calm   10.3 km/h 90 % 0 mm
10:02 -15.7 °C -16.4 °C 34462.7 hPa West 5.1 km/h 10.3 km/h 91 % 0 mm
10:07 -15.7 °C -16.4 °C 34462.7 hPa Calm   7.7 km/h 91 % 0 mm
10:12 -15.6 °C -16.3 °C 34462.7 hPa WSW 5.1 km/h 7.7 km/h 91 % 0 mm
10:17 -15.6 °C -16.3 °C 34462.7 hPa SW 10.3 km/h 10.3 km/h 91 % 0 mm
10:22 -15.6 °C -16.4 °C 34462.7 hPa WSW 2.6 km/h 10.3 km/h 90 % 0 mm
10:32 -15.6 °C -16.4 °C 34462.7 hPa WSW 5.1 km/h 10.3 km/h 89 % 0 mm
10:37 -15.5 °C -16.4 °C 34462.7 hPa SW 5.1 km/h 7.7 km/h 89 % 0 mm
10:47 -15.4 °C -16.4 °C 34462.7 hPa SW 2.6 km/h 10.3 km/h 88 % 7.62 mm
10:52 -15.3 °C -16.2 °C 34462.7 hPa West 7.7 km/h 10.3 km/h 90 % 7.62 mm
10:57 -15.3 °C -16.2 °C 34462.7 hPa Calm   12.9 km/h 89 % 7.62 mm
11:02 -15.2 °C -16.3 °C 34452.6 hPa SW 10.3 km/h 12.9 km/h 87 % 7.62 mm
11:07 -15.1 °C -16.2 °C 34452.6 hPa SW 5.1 km/h 18.2 km/h 87 % 7.62 mm
11:12 -15 °C -16.1 °C 34452.6 hPa WSW 2.6 km/h 18.2 km/h 87 % 7.62 mm
11:17 -14.9 °C -16.2 °C 34452.6 hPa WSW 10.3 km/h 15.6 km/h 85 % 7.62 mm
11:22 -14.7 °C -15.8 °C 34452.6 hPa SW 5.1 km/h 15.6 km/h 87 % 7.62 mm
11:27 -14.5 °C -15.9 °C 34452.6 hPa SW 2.6 km/h 15.6 km/h 84 % 7.62 mm
11:32 -14.5 °C -15.9 °C 34452.6 hPa WSW 5.1 km/h 15.6 km/h 84 % 7.62 mm
11:37 -14.5 °C -16 °C 34442.4 hPa WSW 5.1 km/h 20.8 km/h 83 % 0 mm
11:42 -14.4 °C -15.8 °C 34442.4 hPa Calm   20.8 km/h 84 % 0 mm
11:47 -14.3 °C -15.8 °C 34442.4 hPa SW 5.1 km/h 20.8 km/h 83 % 0 mm
11:52 -14.1 °C -15.7 °C 34442.4 hPa Calm   20.8 km/h 82 % 0 mm
11:57 -13.9 °C -16.1 °C 34442.4 hPa WSW 10.3 km/h 18.2 km/h 77 % 0 mm
12:02 -13.9 °C -16 °C 34442.4 hPa WSW 5.1 km/h 18.2 km/h 77 % 0 mm
12:07 -13.9 °C -16.4 °C 34442.4 hPa Calm   20.8 km/h 73 % 0 mm
12:12 -13.8 °C -16.4 °C 34442.4 hPa SW 5.1 km/h 20.8 km/h 72 % 0 mm
12:17 -13.7 °C -16.4 °C 34442.4 hPa WSW 10.3 km/h 20.8 km/h 71 % 0 mm
12:22 -13.6 °C -16.2 °C 34428.8 hPa SW 12.9 km/h 20.8 km/h 72 % 0 mm
12:27 -13.6 °C -16.3 °C 34428.8 hPa WSW 5.1 km/h 20.8 km/h 71 % 0 mm
12:32 -13.5 °C -16.1 °C 34428.8 hPa SW 5.1 km/h 25.9 km/h 72 % 0 mm
12:37 -13.5 °C -16.1 °C 34428.8 hPa WSW 7.7 km/h 25.9 km/h 72 % 0 mm
12:42 -13.6 °C -16.1 °C 34428.8 hPa WSW 5.1 km/h 25.9 km/h 73 % 0 mm
12:47 -13.7 °C -16.2 °C 34418.7 hPa SW 12.9 km/h 20.8 km/h 73 % 0 mm
12:52 -13.8 °C -16.2 °C 34418.7 hPa WSW 10.3 km/h 20.8 km/h 74 % 0 mm
12:57 -13.9 °C -16.3 °C 34418.7 hPa SW 5.1 km/h 18.2 km/h 74 % 0 mm
13:02 -13.7 °C -15.9 °C 34405.1 hPa SW 5.1 km/h 18.2 km/h 75 % 0 mm
13:07 -13.3 °C -15.9 °C 34405.1 hPa SW 2.6 km/h 20.8 km/h 72 % 0 mm
13:12 -12.8 °C -15.3 °C 34405.1 hPa WSW 10.3 km/h 20.8 km/h 73 % 0 mm
13:17 -12.6 °C -15.7 °C 34405.1 hPa SW 10.3 km/h 23.3 km/h 68 % 0 mm
13:22 -12.3 °C -15.3 °C 34405.1 hPa SW 10.3 km/h 23.3 km/h 69 % 0 mm
13:27 -12.3 °C -15.6 °C 34395 hPa SSW 7.7 km/h 23.3 km/h 67 % 0 mm
13:32 -12.4 °C -15.4 °C 34395 hPa WSW 10.3 km/h 23.3 km/h 69 % 0 mm
13:37 -12.3 °C -15.3 °C 34395 hPa Calm   20.8 km/h 69 % 0 mm
13:47 -12.2 °C -15.2 °C 34395 hPa SW 7.7 km/h 20.8 km/h 69 % 0 mm
13:52 -11.8 °C -15 °C 34384.8 hPa SW 12.9 km/h 20.8 km/h 68 % 0 mm
13:57 -12.1 °C -15.2 °C 34384.8 hPa SW 15.6 km/h 25.9 km/h 68 % 0 mm
14:02 -12.4 °C -15.4 °C 34384.8 hPa SW 7.7 km/h 25.9 km/h 69 % 0 mm
14:07 -12.4 °C -15.3 °C 34384.8 hPa WSW 5.1 km/h 23.3 km/h 70 % 0 mm
14:12 -12.4 °C -15.2 °C 34384.8 hPa WSW 5.1 km/h 23.3 km/h 71 % 0 mm
14:17 -12.4 °C -15.6 °C 34384.8 hPa SW 7.7 km/h 20.8 km/h 67 % 0 mm
14:22 -12.4 °C -15.6 °C 34371.3 hPa SW 10.3 km/h 20.8 km/h 68 % 0 mm
14:27 -12.4 °C -15.6 °C 34371.3 hPa SSW 5.1 km/h 18.2 km/h 68 % 0 mm
14:32 -12.6 °C -15.7 °C 34371.3 hPa SW 5.1 km/h 18.2 km/h 68 % 0 mm
14:37 -12.5 °C -15.4 °C 34371.3 hPa WNW 5.1 km/h 15.6 km/h 70 % 0 mm
14:42 -12.4 °C -15.4 °C 34371.3 hPa SW 2.6 km/h 15.6 km/h 69 % 0 mm
14:52 -12.4 °C -15.4 °C 34371.3 hPa SW 7.7 km/h 12.9 km/h 69 % 0 mm
14:57 -12.4 °C -15.3 °C 34361.1 hPa WSW 2.6 km/h 18.2 km/h 70 % 0 mm
15:02 -12.4 °C -15.5 °C 34361.1 hPa SSW 5.1 km/h 18.2 km/h 68 % 0 mm
15:07 -12.3 °C -15.6 °C 34361.1 hPa WSW 7.7 km/h 23.3 km/h 67 % 0 mm
15:12 -12.3 °C -15.5 °C 34361.1 hPa ENE 5.1 km/h 23.3 km/h 67 % 0 mm
15:17 -12.3 °C -15.5 °C 34361.1 hPa SW 2.6 km/h 23.3 km/h 67 % 0 mm
15:22 -12.3 °C -15.4 °C 34347.6 hPa West 5.1 km/h 23.3 km/h 68 % 0 mm
15:32 -12.3 °C -15.4 °C 34347.6 hPa West 2.6 km/h 18.2 km/h 68 % 0 mm
15:37 -12.3 °C -15.7 °C 34347.6 hPa WSW 2.6 km/h 18.2 km/h 66 % 0 mm
15:42 -12.3 °C -15.8 °C 34347.6 hPa WSW 5.1 km/h 18.2 km/h 65 % 0 mm
15:47 -12.4 °C -15.9 °C 34347.6 hPa SW 5.1 km/h 20.8 km/h 65 % 0 mm
15:52 -12.4 °C -16 °C 34337.4 hPa WSW 5.1 km/h 20.8 km/h 64 % 0 mm
15:57 -12.4 °C -15.7 °C 34337.4 hPa West 7.7 km/h 20.8 km/h 66 % 0 mm
16:02 -12.3 °C -15.8 °C 34337.4 hPa SSE 5.1 km/h 20.8 km/h 65 % 0 mm
16:07 -12.1 °C -15.5 °C 34327.3 hPa Calm   18.2 km/h 66 % 0 mm
16:12 -12 °C -15.9 °C 34327.3 hPa SSW 12.9 km/h 18.2 km/h 62 % 0 mm
16:22 -12 °C -15.9 °C 34327.3 hPa WSW 10.3 km/h 23.3 km/h 62 % 0 mm
16:27 -12.1 °C -16 °C 34327.3 hPa SE 12.9 km/h 25.9 km/h 62 % 0 mm
16:37 -12.1 °C -16 °C 34313.7 hPa SSW 23.3 km/h 25.9 km/h 62 % 0 mm
16:42 -12.1 °C -15.8 °C 34313.7 hPa SW 5.1 km/h 25.9 km/h 63 % 0 mm
16:47 -12.2 °C -15.7 °C 34313.7 hPa SW 5.1 km/h 23.3 km/h 65 % 0 mm
16:52 -12.2 °C -16.1 °C 34303.6 hPa WSW 5.1 km/h 23.3 km/h 62 % 0 mm
16:57 -12.2 °C -15.9 °C 34303.6 hPa WSW 5.1 km/h 15.6 km/h 63 % 0 mm
17:02 -12.3 °C -16.2 °C 34303.6 hPa WSW 7.7 km/h 15.6 km/h 62 % 0 mm
17:07 -12.4 °C -16 °C 34303.6 hPa Calm   15.6 km/h 64 % 0 mm
17:12 -12.4 °C -16.1 °C 34303.6 hPa SW 2.6 km/h 15.6 km/h 63 % 0 mm
17:17 -12.3 °C -16.2 °C 34303.6 hPa SW 5.1 km/h 25.9 km/h 62 % 0 mm
17:22 -12.3 °C -15.9 °C 34303.6 hPa Calm   25.9 km/h 64 % 0 mm
17:27 -12.3 °C -16.1 °C 34293.4 hPa SW 2.6 km/h 23.3 km/h 63 % 0 mm
17:32 -12.3 °C -15.9 °C 34293.4 hPa SSW 7.7 km/h 23.3 km/h 64 % 0 mm
17:37 -12.3 °C -16.1 °C 34293.4 hPa SW 2.6 km/h 20.8 km/h 63 % 0 mm
17:42 -12.3 °C -16.1 °C 34293.4 hPa SW 7.7 km/h 20.8 km/h 63 % 0 mm
17:47 -12.3 °C -15.8 °C 34293.4 hPa SW 5.1 km/h 23.3 km/h 65 % 0 mm
17:52 -12.4 °C -16.1 °C 34293.4 hPa WSW 2.6 km/h 23.3 km/h 63 % 0 mm
17:57 -12.4 °C -16.1 °C 34293.4 hPa WSW 5.1 km/h 18.2 km/h 63 % 0 mm
18:02 -12.4 °C -16 °C 34293.4 hPa SW 5.1 km/h 18.2 km/h 64 % 0 mm
18:07 -12.4 °C -15.9 °C 34279.9 hPa SW 2.6 km/h 12.9 km/h 65 % 0 mm
18:12 -12.4 °C -15.8 °C 34279.9 hPa SW 5.1 km/h 12.9 km/h 66 % 0 mm
18:17 -12.5 °C -16 °C 34279.9 hPa SW 5.1 km/h 12.9 km/h 65 % 0 mm
18:22 -12.5 °C -16 °C 34279.9 hPa SW 5.1 km/h 12.9 km/h 65 % 0 mm
18:27 -12.5 °C -16.1 °C 34269.7 hPa WSW 5.1 km/h 12.9 km/h 64 % 0 mm
18:32 -12.4 °C -15.9 °C 34269.7 hPa West 2.6 km/h 18.2 km/h 65 % 0 mm
18:37 -12.5 °C -16.1 °C 34269.7 hPa SW 2.6 km/h 18.2 km/h 64 % 0 mm
18:42 -12.5 °C -15.8 °C 34269.7 hPa SSW 2.6 km/h 18.2 km/h 66 % 0 mm
18:47 -12.5 °C -15.8 °C 34269.7 hPa Calm   12.9 km/h 66 % 0 mm
18:57 -12.6 °C -15.9 °C 34256.2 hPa SW 5.1 km/h 12.9 km/h 66 % 0 mm
19:02 -12.6 °C -15.7 °C 34256.2 hPa WSW 2.6 km/h 12.9 km/h 68 % 0 mm
19:07 -12.6 °C -15.8 °C 34256.2 hPa SW 7.7 km/h 12.9 km/h 67 % 0 mm
19:17 -12.6 °C -15.9 °C 34256.2 hPa WSW 7.7 km/h 12.9 km/h 66 % 0 mm
19:22 -12.6 °C -15.8 °C 34256.2 hPa Calm   12.9 km/h 67 % 0 mm
19:27 -12.6 °C -15.9 °C 34246 hPa WSW 10.3 km/h 10.3 km/h 66 % 0 mm
19:32 -12.6 °C -16.2 °C 34256.2 hPa Calm   10.3 km/h 64 % 0 mm
19:37 -12.6 °C -16.2 °C 34256.2 hPa WSW 2.6 km/h 15.6 km/h 64 % 0 mm
19:47 -12.6 °C -16.2 °C 34246 hPa ENE 2.6 km/h 10.3 km/h 64 % 0 mm
19:52 -12.7 °C -16.3 °C 34246 hPa Calm   10.3 km/h 64 % 0 mm
19:57 -12.7 °C -16.4 °C 34246 hPa Calm   10.3 km/h 63 % 0 mm
20:02 -12.7 °C -16.3 °C 34246 hPa Calm   10.3 km/h 64 % 0 mm
20:07 -12.7 °C -16.3 °C 34246 hPa Calm   10.3 km/h 64 % 0 mm
20:12 -12.7 °C -16.2 °C 34235.8 hPa SW 2.6 km/h 10.3 km/h 65 % 0 mm
20:17 -12.7 °C -16.4 °C 34235.8 hPa South 7.7 km/h 23.3 km/h 63 % 0 mm
20:27 -12.8 °C -16.5 °C 34222.3 hPa SW 7.7 km/h 23.3 km/h 63 % 0 mm
20:32 -12.8 °C -16.3 °C 34235.8 hPa West 7.7 km/h 23.3 km/h 64 % 0 mm
20:37 -12.8 °C -16.5 °C 34235.8 hPa ESE 7.7 km/h 18.2 km/h 63 % 0 mm
20:42 -12.8 °C -16.4 °C 34235.8 hPa WSW 5.1 km/h 18.2 km/h 64 % 0 mm
20:47 -12.8 °C -16.3 °C 34235.8 hPa WSW 2.6 km/h 15.6 km/h 65 % 0 mm
20:52 -12.9 °C -16.3 °C 34235.8 hPa WSW 10.3 km/h 15.6 km/h 65 % 0 mm
20:57 -12.9 °C -16.2 °C 34235.8 hPa SW 5.1 km/h 12.9 km/h 66 % 0 mm
21:02 -12.9 °C -16.1 °C 34235.8 hPa SW 2.6 km/h 12.9 km/h 67 % 0 mm
21:07 -12.9 °C -16.2 °C 34235.8 hPa SW 5.1 km/h 15.6 km/h 67 % 0 mm
21:12 -12.9 °C -16.2 °C 34235.8 hPa WSW 12.9 km/h 15.6 km/h 67 % 0 mm
21:17 -13 °C -16.1 °C 34235.8 hPa WSW 12.9 km/h 15.6 km/h 68 % 0 mm
21:22 -13 °C -16.1 °C 34235.8 hPa SW 2.6 km/h 15.6 km/h 68 % 0 mm
21:27 -13 °C -16.1 °C 34222.3 hPa WSW 7.7 km/h 15.6 km/h 68 % 0 mm
21:32 -13 °C -16.1 °C 34212.1 hPa WSW 10.3 km/h 15.6 km/h 68 % 0 mm
21:37 -13 °C -16.1 °C 34222.3 hPa WSW 7.7 km/h 31.1 km/h 68 % 0 mm
21:42 -13 °C -16 °C 34235.8 hPa Calm   31.1 km/h 69 % 0 mm
21:47 -13.1 °C -15.9 °C 34235.8 hPa Calm   23.3 km/h 70 % 0 mm
21:52 -13.1 °C -16 °C 34235.8 hPa South 2.6 km/h 23.3 km/h 70 % 0 mm
22:02 -13.2 °C -15.8 °C 34235.8 hPa SSE 7.7 km/h 15.6 km/h 72 % 0 mm
22:07 -13.2 °C -15.8 °C 34235.8 hPa SW 2.6 km/h 23.3 km/h 72 % 0 mm
22:17 -13.2 °C -15.8 °C 34222.3 hPa WSW 10.3 km/h 23.3 km/h 72 % 0 mm
22:22 -13.2 °C -15.7 °C 34222.3 hPa SW 2.6 km/h 23.3 km/h 73 % 0 mm
22:27 -13.2 °C -15.8 °C 34222.3 hPa WSW 2.6 km/h 18.2 km/h 73 % 0 mm
22:37 -13.2 °C -15.8 °C 34222.3 hPa SW 5.1 km/h 12.9 km/h 73 % 0 mm
22:42 -13.2 °C -15.7 °C 34222.3 hPa WSW 5.1 km/h 12.9 km/h 74 % 0 mm
22:47 -13.3 °C -15.7 °C 34222.3 hPa SW 7.7 km/h 15.6 km/h 74 % 0 mm
22:52 -13.3 °C -15.6 °C 34222.3 hPa SSW 2.6 km/h 15.6 km/h 75 % 0 mm
22:57 -13.3 °C -15.6 °C 34222.3 hPa SW 7.7 km/h 10.3 km/h 75 % 0 mm
23:02 -13.3 °C -15.6 °C 34222.3 hPa SSW 2.6 km/h 10.3 km/h 75 % 0 mm
23:07 -13.3 °C -15.6 °C 34222.3 hPa Calm   20.8 km/h 75 % 0 mm
23:12 -13.3 °C -15.6 °C 34222.3 hPa WSW 5.1 km/h 20.8 km/h 76 % 0 mm
23:17 -13.4 °C -15.6 °C 34222.3 hPa Calm   15.6 km/h 76 % 0 mm
23:22 -13.4 °C -15.6 °C 34222.3 hPa WSW 5.1 km/h 15.6 km/h 76 % 0 mm
23:27 -13.4 °C -15.5 °C 34222.3 hPa SW 2.6 km/h 20.8 km/h 77 % 0 mm
23:32 -13.4 °C -15.5 °C 34212.1 hPa SW 2.6 km/h 20.8 km/h 77 % 0 mm
23:37 -13.4 °C -15.6 °C 34212.1 hPa SW 10.3 km/h 20.8 km/h 77 % 0 mm
23:42 -13.4 °C -15.4 °C 34212.1 hPa SW 10.3 km/h 20.8 km/h 78 % 0 mm
23:47 -13.4 °C -15.4 °C 34212.1 hPa Calm   23.3 km/h 78 % 0 mm
23:52 -13.4 °C -15.3 °C 34212.1 hPa WSW 5.1 km/h 23.3 km/h 79 % 0 mm
23:57 -13.4 °C -15.3 °C 34212.1 hPa Calm   18.2 km/h 79 % 0 mm
Meteo18
Compliments of Weather Underground - 4 mb

Script developed by  Jim McMurry - jmcmurry@mwt.net Adapted for the template by  Wim van der Kuil - Leuven-Template.eu

You find our weather info also at:

European Weather Network

Weather Underground

Equipment we use:

Weather-station
Davis Vue

Weather-program
Meteobridge

Weather-server
Raspberry PI 2 B+

Provider
1 and 1

Davis Vue

Meteobridge

Raspberry PI 2 B+

1 and 1